Terminal Aerodrome Forecast
Issued by NWS

Home | Current Version | Previous Version | Text Only | Print | Product List | Glossary On
Versions: 1 2 3 4 5 6 7 8 9 10 11 12 13 14 15 16 17 18 19 20 21 22 23 24 25 26 27 28 29 30 31 32 33
000
FTAK31 PANC 282339
TAFACV
TAF
PACV 282339Z 2900/2924 00000KT P6SM BKN150
     FM290500 10011KT P6SM OVC120 WS020/12040KT
     FM291200 10012G20KT P6SM OVC070 WS020/11050KT=

USA.gov is the U.S. government's official web portal to all federal, state and local government web resources and services.